FFT1411 KRDU-KSYR

Flight info

Callsign FFT1411
Flight time 1h 16m
Altitude 35000
Route OXFRD5 CARML LDN PSB J59 SYR
Aircraft A21N/M-SDE2E3FGHIRWXY/LB1

Departure

Time 2026-04-30 00:53
Airport Raleigh-Durham International Airport (KRDU)

Arrival

Time 2026-04-30 02:09
Airport Syracuse Hancock International Airport (KSYR)
Time Latitude Longitude Altitude Speed Heading
2026-04-30 00:11 35.87901 -78.79237 397 ft 0 kts 136°
2026-04-30 00:40 35.87913 -78.79252 396 ft 4 kts 134°
2026-04-30 00:40 35.87927 -78.79278 397 ft 4 kts 104°
2026-04-30 00:41 35.87926 -78.79307 397 ft 4 kts 58°
2026-04-30 00:41 35.87917 -78.79321 393 ft 1 kts 44°
2026-04-30 00:41 35.87916 -78.79322 395 ft 0 kts 44°
2026-04-30 00:45 35.87918 -78.79319 397 ft 2 kts 44°
2026-04-30 00:45 35.87931 -78.79304 397 ft 4 kts 44°
2026-04-30 00:45 35.87953 -78.79277 396 ft 5 kts 44°
2026-04-30 00:46 35.87985 -78.79238 396 ft 7 kts 44°
2026-04-30 00:46 35.88027 -78.79187 396 ft 10 kts 44°
2026-04-30 00:46 35.88080 -78.79124 394 ft 12 kts 45°
2026-04-30 00:46 35.88139 -78.79045 396 ft 13 kts 45°
2026-04-30 00:47 35.88208 -78.78958 397 ft 15 kts 45°
2026-04-30 00:47 35.88285 -78.78863 395 ft 17 kts 45°
2026-04-30 00:47 35.88372 -78.78757 395 ft 18 kts 44°
2026-04-30 00:47 35.88465 -78.78641 397 ft 20 kts 45°
2026-04-30 00:48 35.88565 -78.78517 395 ft 21 kts 45°
2026-04-30 00:48 35.88673 -78.78384 395 ft 23 kts 45°
2026-04-30 00:48 35.88788 -78.78243 396 ft 24 kts 45°
2026-04-30 00:48 35.88906 -78.78097 395 ft 20 kts 45°
2026-04-30 00:49 35.88981 -78.77971 393 ft 16 kts 77°
2026-04-30 00:49 35.89034 -78.77857 394 ft 11 kts 45°
2026-04-30 00:49 35.89094 -78.77783 395 ft 13 kts 45°
2026-04-30 00:49 35.89161 -78.77702 393 ft 10 kts 44°
2026-04-30 00:50 35.89189 -78.77667 396 ft 8 kts 45°
2026-04-30 00:50 35.89246 -78.77664 397 ft 9 kts 322°
2026-04-30 00:50 35.89251 -78.77668 397 ft 0 kts 316°
2026-04-30 00:51 35.89258 -78.77677 397 ft 4 kts 316°
2026-04-30 00:51 35.89283 -78.77706 397 ft 6 kts 315°
2026-04-30 00:51 35.89309 -78.77739 398 ft 9 kts 315°
2026-04-30 00:51 35.89352 -78.77810 398 ft 12 kts 281°
2026-04-30 00:52 35.89340 -78.77854 396 ft 0 kts 223°
2026-04-30 00:52 35.89291 -78.77911 395 ft 0 kts 224°
2026-04-30 00:53 35.89198 -78.78028 395 ft 53 kts 226°
2026-04-30 00:53 35.88759 -78.78571 395 ft 121 kts 225°
2026-04-30 00:53 35.88038 -78.79463 430 ft 163 kts 225°
2026-04-30 00:53 35.87332 -78.80361 1225 ft 137 kts 225°
2026-04-30 00:54 35.86617 -78.81267 1470 ft 157 kts 225°
2026-04-30 00:54 35.85809 -78.82276 1865 ft 173 kts 225°
2026-04-30 00:54 35.84919 -78.83364 2376 ft 188 kts 225°
2026-04-30 00:54 35.83942 -78.84540 2917 ft 207 kts 225°
2026-04-30 00:55 35.82956 -78.85955 3361 ft 231 kts 242°
2026-04-30 00:55 35.82557 -78.87941 3918 ft 249 kts 270°
2026-04-30 00:55 35.84078 -78.91785 5820 ft 259 kts 311°
2026-04-30 00:56 35.85509 -78.93132 6812 ft 263 kts 329°
2026-04-30 00:56 35.87288 -78.93742 7732 ft 272 kts 351°
2026-04-30 00:56 35.89202 -78.93426 8624 ft 286 kts 13°
2026-04-30 00:56 35.91595 -78.91903 9789 ft 296 kts 23°
2026-04-30 00:57 35.92787 -78.91039 10221 ft 304 kts 24°
2026-04-30 00:57 35.94671 -78.89685 10572 ft 324 kts 24°
2026-04-30 00:57 35.96688 -78.88262 10869 ft 344 kts 24°
2026-04-30 00:57 35.98828 -78.86767 11252 ft 361 kts 24°
2026-04-30 00:58 36.01040 -78.85227 11907 ft 368 kts 24°
2026-04-30 00:58 36.03288 -78.83667 12668 ft 372 kts 24°
2026-04-30 00:58 36.05557 -78.82099 13435 ft 376 kts 24°
2026-04-30 00:58 36.07851 -78.80512 14127 ft 380 kts 24°
2026-04-30 00:59 36.10169 -78.78906 14807 ft 383 kts 24°
2026-04-30 00:59 36.12505 -78.77288 15496 ft 387 kts 24°
2026-04-30 00:59 36.14862 -78.75652 16171 ft 391 kts 24°
2026-04-30 00:59 36.17246 -78.74000 16828 ft 394 kts 24°
2026-04-30 01:00 36.19655 -78.72330 17499 ft 398 kts 24°
2026-04-30 01:00 36.22075 -78.70650 18195 ft 402 kts 24°
2026-04-30 01:00 36.24535 -78.68945 18740 ft 406 kts 23°
2026-04-30 01:00 36.27008 -78.67223 19273 ft 410 kts 23°
2026-04-30 01:01 36.29481 -78.65506 19793 ft 415 kts 23°
2026-04-30 01:01 36.32008 -78.63749 20338 ft 419 kts 23°
2026-04-30 01:01 36.34570 -78.61980 20861 ft 422 kts 22°
2026-04-30 01:01 36.37268 -78.60590 21355 ft 418 kts 11°
2026-04-30 01:02 36.40068 -78.59572 21862 ft 421 kts
2026-04-30 01:02 36.42898 -78.58583 22376 ft 425 kts
2026-04-30 01:02 36.45759 -78.57578 22902 ft 429 kts
2026-04-30 01:02 36.48644 -78.56552 23401 ft 432 kts
2026-04-30 01:03 36.51508 -78.55527 23820 ft 435 kts
2026-04-30 01:03 36.54429 -78.54479 24245 ft 438 kts
2026-04-30 01:03 36.57367 -78.53426 24667 ft 440 kts
2026-04-30 01:03 36.60322 -78.52365 25081 ft 443 kts
2026-04-30 01:04 36.63296 -78.51297 25487 ft 446 kts
2026-04-30 01:04 36.66284 -78.50222 25886 ft 449 kts
2026-04-30 01:04 36.69292 -78.49138 26307 ft 452 kts
2026-04-30 01:04 36.72326 -78.48036 26677 ft 456 kts
2026-04-30 01:05 36.75318 -78.46558 27043 ft 470 kts 19°
2026-04-30 01:05 36.78160 -78.44440 27415 ft 480 kts 25°
2026-04-30 01:05 36.80935 -78.42172 27779 ft 483 kts 26°
2026-04-30 01:05 36.83783 -78.39819 28147 ft 486 kts 26°
2026-04-30 01:06 36.86582 -78.37523 28495 ft 489 kts 25°
2026-04-30 01:06 36.89474 -78.35168 28833 ft 492 kts 25°
2026-04-30 01:06 36.92313 -78.32857 29156 ft 495 kts 25°
2026-04-30 01:06 36.95203 -78.30508 29502 ft 497 kts 25°
2026-04-30 01:07 36.98100 -78.28146 29909 ft 497 kts 25°
2026-04-30 01:07 37.00997 -78.25778 30296 ft 496 kts 25°
2026-04-30 01:07 37.03883 -78.23423 30679 ft 495 kts 25°
2026-04-30 01:07 37.06759 -78.21074 31040 ft 494 kts 25°
2026-04-30 01:08 37.09643 -78.18714 31411 ft 493 kts 25°
2026-04-30 01:08 37.12508 -78.16366 31802 ft 493 kts 24°
2026-04-30 01:08 37.15379 -78.14012 32091 ft 493 kts 24°
2026-04-30 01:08 37.18258 -78.11655 32397 ft 494 kts 24°
2026-04-30 01:09 37.21130 -78.09305 32729 ft 493 kts 24°
2026-04-30 01:09 37.24003 -78.06948 33056 ft 492 kts 24°
2026-04-30 01:09 37.26861 -78.04600 33365 ft 492 kts 24°
2026-04-30 01:09 37.29721 -78.02242 33673 ft 491 kts 24°
2026-04-30 01:10 37.32634 -78.00068 33936 ft 481 kts 17°
2026-04-30 01:10 37.35703 -77.98547 34187 ft 466 kts
2026-04-30 01:10 37.38831 -77.97786 34346 ft 450 kts 354°
2026-04-30 01:10 37.41910 -77.97746 34546 ft 435 kts 344°
2026-04-30 01:11 37.44891 -77.98176 34766 ft 430 kts 341°
2026-04-30 01:11 37.47853 -77.98681 34857 ft 428 kts 341°
2026-04-30 01:11 37.53768 -77.99656 34848 ft 429 kts 341°
2026-04-30 01:12 37.59662 -78.00586 34875 ft 430 kts 342°
2026-04-30 01:12 37.65614 -78.01508 34842 ft 430 kts 342°
2026-04-30 01:13 37.71562 -78.02432 34838 ft 430 kts 342°
2026-04-30 01:13 37.77502 -78.03363 34837 ft 430 kts 342°
2026-04-30 01:14 37.83444 -78.04295 34836 ft 430 kts 341°
2026-04-30 01:14 37.89397 -78.05234 34838 ft 430 kts 341°
2026-04-30 01:15 37.95340 -78.06170 34837 ft 430 kts 342°
2026-04-30 01:15 38.01240 -78.07102 34848 ft 430 kts 341°
2026-04-30 01:16 38.07184 -78.08042 34868 ft 431 kts 341°
2026-04-30 01:16 38.13135 -78.08986 34838 ft 431 kts 341°
2026-04-30 01:17 38.19086 -78.09929 34828 ft 431 kts 341°
2026-04-30 01:17 38.25043 -78.10882 34839 ft 431 kts 341°
2026-04-30 01:18 38.31000 -78.11828 34871 ft 432 kts 342°
2026-04-30 01:18 38.36974 -78.12777 34849 ft 433 kts 342°
2026-04-30 01:19 38.42908 -78.13724 34841 ft 433 kts 341°
2026-04-30 01:19 38.48895 -78.14684 34841 ft 433 kts 341°
2026-04-30 01:20 38.54873 -78.15643 34858 ft 433 kts 342°
2026-04-30 01:20 38.60861 -78.16607 34844 ft 434 kts 342°
2026-04-30 01:21 38.66852 -78.17567 34838 ft 434 kts 342°
2026-04-30 01:21 38.72848 -78.18532 34832 ft 433 kts 342°
2026-04-30 01:22 38.78798 -78.19493 34848 ft 434 kts 342°
2026-04-30 01:22 38.84800 -78.20412 34825 ft 438 kts 346°
2026-04-30 01:23 38.87938 -78.20352 34819 ft 450 kts 353°
2026-04-30 01:23 38.91058 -78.20054 34820 ft 451 kts 354°
2026-04-30 01:23 38.97334 -78.19397 34602 ft 454 kts 354°
2026-04-30 01:24 39.03543 -78.18761 34764 ft 449 kts 354°
2026-04-30 01:24 39.09783 -78.18141 34827 ft 450 kts 354°
2026-04-30 01:25 39.16030 -78.17510 34837 ft 450 kts 354°
2026-04-30 01:25 39.22276 -78.16880 34875 ft 451 kts 355°
2026-04-30 01:26 39.28538 -78.16248 34847 ft 452 kts 355°
2026-04-30 01:26 39.34818 -78.15604 34840 ft 452 kts 355°
2026-04-30 01:27 39.41084 -78.14969 34830 ft 452 kts 355°
2026-04-30 01:27 39.47373 -78.14326 34837 ft 453 kts 355°
2026-04-30 01:28 39.53655 -78.13683 34834 ft 452 kts 355°
2026-04-30 01:28 39.59898 -78.13044 34832 ft 453 kts 355°
2026-04-30 01:29 39.66178 -78.12400 34859 ft 454 kts 356°
2026-04-30 01:29 39.72497 -78.11755 34836 ft 455 kts 356°
2026-04-30 01:30 39.78813 -78.11104 34832 ft 455 kts 356°
2026-04-30 01:30 39.85122 -78.10452 34831 ft 455 kts 356°
2026-04-30 01:31 39.91436 -78.09801 34835 ft 456 kts 356°
2026-04-30 01:31 39.97769 -78.09152 34829 ft 456 kts 356°
2026-04-30 01:32 40.04098 -78.08502 34825 ft 456 kts 356°
2026-04-30 01:32 40.10388 -78.07850 34824 ft 456 kts 356°
2026-04-30 01:33 40.16722 -78.07193 34826 ft 456 kts 356°
2026-04-30 01:33 40.23048 -78.06528 34824 ft 456 kts 356°
2026-04-30 01:34 40.29370 -78.05868 34854 ft 456 kts 357°
2026-04-30 01:34 40.35712 -78.05200 34827 ft 458 kts 358°
2026-04-30 01:35 40.42024 -78.04540 34821 ft 458 kts 358°
2026-04-30 01:35 40.48379 -78.03872 34816 ft 458 kts 358°
2026-04-30 01:36 40.54733 -78.03204 34826 ft 459 kts 358°
2026-04-30 01:36 40.61124 -78.02530 34816 ft 460 kts 358°
2026-04-30 01:37 40.67506 -78.01855 34820 ft 460 kts 358°
2026-04-30 01:37 40.73849 -78.01187 34840 ft 460 kts 359°
2026-04-30 01:38 40.80246 -78.00515 34822 ft 462 kts 359°
2026-04-30 01:38 40.85617 -77.99947 34818 ft 462 kts 359°
2026-04-30 01:39 40.91963 -77.98675 34811 ft 471 kts 12°
2026-04-30 01:39 40.94987 -77.96910 34829 ft 480 kts 25°
2026-04-30 01:39 40.97869 -77.94675 34812 ft 481 kts 27°
2026-04-30 01:40 41.03615 -77.90130 34813 ft 480 kts 27°
2026-04-30 01:40 41.09388 -77.85658 34809 ft 480 kts 26°
2026-04-30 01:41 41.15160 -77.81186 34808 ft 481 kts 27°
2026-04-30 01:41 41.20952 -77.76705 34797 ft 482 kts 27°
2026-04-30 01:42 41.26752 -77.72213 34792 ft 481 kts 27°
2026-04-30 01:42 41.32494 -77.67766 34808 ft 480 kts 27°
2026-04-30 01:43 41.38269 -77.63279 34799 ft 481 kts 27°
2026-04-30 01:43 41.44054 -77.58760 34781 ft 482 kts 28°
2026-04-30 01:44 41.49855 -77.54275 34792 ft 482 kts 28°
2026-04-30 01:44 41.55665 -77.49766 34797 ft 484 kts 28°
2026-04-30 01:45 41.61481 -77.45212 34792 ft 484 kts 28°
2026-04-30 01:45 41.67289 -77.40649 34790 ft 484 kts 28°
2026-04-30 01:46 41.73085 -77.36096 34396 ft 484 kts 30°
2026-04-30 01:46 41.76000 -77.33799 34121 ft 488 kts 30°
2026-04-30 01:46 41.78924 -77.31493 33871 ft 489 kts 30°
2026-04-30 01:47 41.81853 -77.29181 33370 ft 487 kts 30°
2026-04-30 01:47 41.84733 -77.26906 32677 ft 486 kts 31°
2026-04-30 01:47 41.87682 -77.24574 31903 ft 487 kts 31°
2026-04-30 01:47 41.90564 -77.22289 31146 ft 487 kts 32°
2026-04-30 01:48 41.93475 -77.19981 30497 ft 484 kts 33°
2026-04-30 01:48 41.96366 -77.17686 29883 ft 480 kts 33°
2026-04-30 01:48 41.99234 -77.15407 29180 ft 476 kts 33°
2026-04-30 01:48 42.02075 -77.13150 28515 ft 471 kts 33°
2026-04-30 01:49 42.04876 -77.10921 27903 ft 464 kts 33°
2026-04-30 01:49 42.07637 -77.08721 27340 ft 459 kts 32°
2026-04-30 01:49 42.10376 -77.06536 26745 ft 455 kts 32°
2026-04-30 01:49 42.13086 -77.04364 26139 ft 452 kts 32°
2026-04-30 01:50 42.15788 -77.02206 25548 ft 450 kts 32°
2026-04-30 01:50 42.18474 -77.00063 24967 ft 447 kts 31°
2026-04-30 01:50 42.21148 -76.97925 24372 ft 445 kts 31°
2026-04-30 01:50 42.23801 -76.95797 23778 ft 443 kts 31°
2026-04-30 01:51 42.26454 -76.93666 23153 ft 441 kts 31°
2026-04-30 01:51 42.29082 -76.91552 22520 ft 439 kts 31°
2026-04-30 01:51 42.31702 -76.89443 21889 ft 437 kts 31°
2026-04-30 01:51 42.34300 -76.87353 21283 ft 434 kts 30°
2026-04-30 01:52 42.36886 -76.85269 20689 ft 430 kts 30°
2026-04-30 01:52 42.39406 -76.83234 20144 ft 425 kts 30°
2026-04-30 01:52 42.41969 -76.81166 19599 ft 421 kts 30°
2026-04-30 01:52 42.44435 -76.79174 19088 ft 417 kts 30°
2026-04-30 01:53 42.46922 -76.77161 18593 ft 415 kts 29°
2026-04-30 01:53 42.49403 -76.75154 18097 ft 414 kts 29°
2026-04-30 01:53 42.51848 -76.73170 17654 ft 406 kts 29°
2026-04-30 01:53 42.54263 -76.71210 17212 ft 403 kts 29°
2026-04-30 01:54 42.56663 -76.69262 16716 ft 401 kts 29°
2026-04-30 01:54 42.59060 -76.67316 16239 ft 400 kts 29°
2026-04-30 01:54 42.61440 -76.65379 15764 ft 399 kts 28°
2026-04-30 01:54 42.63818 -76.63444 15292 ft 397 kts 28°
2026-04-30 01:55 42.66194 -76.61509 14806 ft 397 kts 28°
2026-04-30 01:55 42.68530 -76.59604 14315 ft 396 kts 28°
2026-04-30 01:55 42.70875 -76.57687 13821 ft 389 kts 28°
2026-04-30 01:55 42.73175 -76.55802 13298 ft 382 kts 28°
2026-04-30 01:56 42.75433 -76.53959 12782 ft 375 kts 28°
2026-04-30 01:56 42.77643 -76.52151 12314 ft 366 kts 29°
2026-04-30 01:56 42.79807 -76.50381 11823 ft 359 kts 29°
2026-04-30 01:56 42.81923 -76.48646 11358 ft 352 kts 28°
2026-04-30 01:57 42.83992 -76.46947 10997 ft 340 kts 29°
2026-04-30 01:57 42.85972 -76.45319 10655 ft 325 kts 29°
2026-04-30 01:57 42.87868 -76.43760 10318 ft 312 kts 30°
2026-04-30 01:57 42.89705 -76.42250 9901 ft 306 kts 30°
2026-04-30 01:58 42.91520 -76.40752 9452 ft 303 kts 30°
2026-04-30 01:58 42.93317 -76.39270 8936 ft 302 kts 30°
2026-04-30 01:58 42.95108 -76.37794 8458 ft 300 kts 30°
2026-04-30 01:58 42.96878 -76.36333 7998 ft 298 kts 30°
2026-04-30 01:59 43.00425 -76.33380 7058 ft 296 kts 30°
2026-04-30 01:59 43.02179 -76.31925 6687 ft 291 kts 30°
2026-04-30 01:59 43.03928 -76.30698 6389 ft 284 kts 15°
2026-04-30 02:00 43.05883 -76.30463 6080 ft 278 kts 349°
2026-04-30 02:00 43.07656 -76.31332 5765 ft 273 kts 324°
2026-04-30 02:00 43.08981 -76.33124 5459 ft 267 kts 299°
2026-04-30 02:00 43.09597 -76.35467 5162 ft 261 kts 275°
2026-04-30 02:01 43.09706 -76.37934 4877 ft 259 kts 269°
2026-04-30 02:01 43.09732 -76.40382 4571 ft 256 kts 268°
2026-04-30 02:01 43.09755 -76.42819 4259 ft 255 kts 268°
2026-04-30 02:01 43.09788 -76.45236 3949 ft 254 kts 270°
2026-04-30 02:02 43.10214 -76.47591 3621 ft 260 kts 292°
2026-04-30 02:02 43.11329 -76.49557 3308 ft 267 kts 316°
2026-04-30 02:02 43.12969 -76.50734 3037 ft 273 kts 344°
2026-04-30 02:02 43.14849 -76.50851 2967 ft 273 kts
2026-04-30 02:03 43.16573 -76.49905 2944 ft 259 kts 36°
2026-04-30 02:03 43.17783 -76.48189 2919 ft 247 kts 64°
2026-04-30 02:03 43.18379 -76.46032 2926 ft 240 kts 83°
2026-04-30 02:03 43.18410 -76.43789 2953 ft 233 kts 105°
2026-04-30 02:04 43.17859 -76.41750 2974 ft 226 kts 126°
2026-04-30 02:04 43.16841 -76.40154 2986 ft 220 kts 147°
2026-04-30 02:04 43.15530 -76.39170 2979 ft 214 kts 165°
2026-04-30 02:04 43.14085 -76.38724 2999 ft 211 kts 174°
2026-04-30 02:05 43.12638 -76.38384 3000 ft 210 kts 174°
2026-04-30 02:05 43.11209 -76.37877 2982 ft 217 kts 156°
2026-04-30 02:05 43.10139 -76.36406 2985 ft 228 kts 119°
2026-04-30 02:05 43.09830 -76.34246 3003 ft 236 kts 94°
2026-04-30 02:06 43.09964 -76.31991 3007 ft 240 kts 86°
2026-04-30 02:06 43.10175 -76.29781 2900 ft 226 kts 88°
2026-04-30 02:06 43.10314 -76.27716 2627 ft 214 kts 92°
2026-04-30 02:06 43.10383 -76.25740 2355 ft 204 kts 92°
2026-04-30 02:07 43.10445 -76.23872 2128 ft 190 kts 92°
2026-04-30 02:07 43.10503 -76.22131 1898 ft 175 kts 92°
2026-04-30 02:07 43.10554 -76.20574 1654 ft 154 kts 93°
2026-04-30 02:07 43.10599 -76.19211 1404 ft 138 kts 92°
2026-04-30 02:08 43.10642 -76.17899 1214 ft 137 kts 90°
2026-04-30 02:08 43.10685 -76.16608 1029 ft 135 kts 88°
2026-04-30 02:08 43.10726 -76.15334 844 ft 131 kts 88°
2026-04-30 02:08 43.10770 -76.14086 688 ft 131 kts 88°
2026-04-30 02:09 43.10814 -76.12843 489 ft 132 kts 87°
2026-04-30 02:09 43.10854 -76.11644 429 ft 111 kts 87°
2026-04-30 02:09 43.10882 -76.10835 428 ft 60 kts 88°
2026-04-30 02:09 43.10946 -76.10568 425 ft 24 kts 356°
2026-04-30 02:10 43.10978 -76.10572 424 ft 0 kts 354°
2026-04-30 02:11 43.11006 -76.10622 424 ft 9 kts 284°
2026-04-30 02:11 43.11006 -76.10722 430 ft 12 kts 268°
2026-04-30 02:12 43.11050 -76.10813 419 ft 14 kts 343°
2026-04-30 02:12 43.11151 -76.10826 426 ft 16 kts 356°
2026-04-30 02:12 43.11200 -76.10899 427 ft 8 kts 279°
2026-04-30 02:12 43.11222 -76.10936 426 ft 0 kts 341°
2026-04-30 02:13 43.11224 -76.10937 425 ft 1 kts 337°
2026-04-30 02:13 43.11241 -76.10944 429 ft 4 kts 352°
2026-04-30 02:13 43.11252 -76.10946 426 ft 0 kts 355°